Temp
-14 -13 -13 -13 -13 -13 -13 -14 -15 -14 -13 -14 -13 -13 -13 -13 -12 -12 -11 -11 -11 -12 -11 -11 -11 -11 -11 -12 -12 -12 -11 -11 -11 -11 -11 -11 -11 -11 -12 -12 -12 -13 -12 -12 -12 -12 -12 -12 -12
-14 -14 -13 -13 -13 -14 -15 -15 -15 -14 -13 -14 -13 -13 -13 -13 -12 -12 -11 -11 -11 -12 -12 -11 -12 -12 -12 -12 -11 -11 -11 -11 -12 -12 -11 -11 -11 -11 -12 -12 -12 -13 -13 -13 -12 -12 -12 -12 -12
-14 -14 -14 -14 -14 -15 -15 -15 -14 -14 -13 -14 -14 -13 -13 -13 -13 -12 -12 -12 -12 -12 -12 -12 -12 -12 -12 -12 -11 -11 -10 -11 -12 -12 -12 -12 -11 -12 -12 -12 -13 -13 -13 -13 -13 -13 -12 -12 -12
-15 -15 -14 -14 -15 -15 -15 -15 -15 -14 -13 -13 -14 -13 -13 -13 -12 -12 -12 -12 -12 -11 -11 -11 -12 -12 -12 -11 -11 -11 -11 -12 -12 -12 -12 -11 -12 -12 -12 -13 -14 -14 -14 -13 -13 -12 -12 -12 -12
-15 -15 -15 -15 -15 -15 -15 -15 -14 -14 -13 -14 -14 -14 -13 -13 -12 -12 -13 -13 -12 -11 -11 -12 -12 -12 -11 -11 -11 -12 -11 -12 -12 -12 -12 -12 -12 -13 -13 -15 -16 -15 -14 -13 -13 -12 -12 -12 -12
-16 -16 -16 -15 -15 -15 -15 -15 -14 -14 -14 -14 -14 -14 -13 -13 -13 -12 -12 -12 -12 -12 -12 -12 -11 -11 -11 -12 -11 -11 -11 -11 -12 -11 -12 -12 -13 -13 -15 -16 -15 -14 -13 -13 -13 -13 -12 -12 -12
-16 -16 -16 -16 -16 -16 -15 -15 -15 -15 -15 -15 -14 -13 -13 -13 -13 -12 -12 -12 -12 -12 -12 -12 -11 -11 -11 -11 -11 -11 -11 -11 -11 -11 -12 -13 -13 -16 -16 -16 -14 -14 -14 -13 -13 -13 -13 -13 -13
-17 -17 -17 -16 -16 -16 -16 -16 -15 -15 -15 -14 -14 -13 -13 -13 -13 -13 -12 -12 -12 -11 -11 -13 -12 -11 -11 -11 -11 -11 -11 -11 -12 -12 -14 -15 -17 -16 -15 -14 -14 -13 -14 -13 -13 -13 -13 -13 -13
-17 -17 -17 -17 -17 -16 -16 -16 -15 -15 -14 -14 -14 -13 -13 -13 -13 -12 -12 -11 -11 -12 -11 -11 -12 -11 -11 -11 -11 -11 -11 -12 -12 -13 -16 -17 -16 -15 -15 -14 -14 -14 -13 -13 -13 -14 -13 -14 -14
-18 -17 -17 -17 -17 -16 -15 -15 -15 -14 -14 -14 -13 -13 -13 -13 -13 -12 -11 -11 -11 -12 -11 -11 -12 -11 -11 -11 -12 -12 -12 -13 -14 -15 -17 -17 -16 -15 -15 -14 -14 -14 -13 -14 -14 -14 -14 -14 -14
-18 -17 -17 -17 -17 -16 -15 -15 -14 -14 -14 -13 -13 -13 -13 -13 -13 -12 -11 -11 -12 -12 -12 -12 -12 -12 -12 -12 -11 -12 -13 -14 -15 -16 -16 -16 -16 -15 -14 -14 -14 -14 -14 -14 -14 -14 -14 -14 -14
-18 -18 -17 -16 -16 -16 -15 -15 -14 -14 -14 -14 -13 -14 -13 -12 -12 -12 -13 -12 -13 -12 -13 -13 -14 -13 -13 -13 -13 -14 -14 -14 -15 -16 -15 -15 -14 -14 -14 -14 -14 -14 -14 -15 -15 -14 -14 -14 -14
-17 -17 -17 -16 -16 -16 -15 -15 -15 -15 -15 -14 -14 -14 -13 -13 -13 -13 -12 -13 -13 -13 -14 -16 -14 -14 -14 -14 -14 -15 -15 -15 -15 -15 -15 -14 -14 -14 -14 -14 -15 -15 -15 -15 -15 -14 -14 -14 -14
-17 -17 -17 -16 -15 -15 -15 -15 -14 -15 -15 -14 -14 -14 -14 -13 -13 -13 -14 -15 -14 -15 -15 -15 -14 -14 -15 -15 -15 -15 -15 -15 -15 -15 -15 -15 -14 -15 -15 -15 -15 -15 -15 -15 -15 -15 -15 -15 -15
-17 -17 -16 -16 -15 -15 -15 -14 -15 -15 -15 -15 -15 -15 -15 -15 -15 -15 -15 -14 -14 -15 -15 -15 -15 -15 -15 -15 -15 -15 -15 -15 -15 -15 -15 -15 -15 -15 -15 -15 -15 -15 -15 -15 -15 -15 -15 -16 -16
-17 -16 -16 -16 -16 -15 -15 -16 -16 -15 -15 -14 -15 -15 -15 -15 -15 -15 -15 -15 -14 -15 -15 -15 -15 -15 -15 -15 -15 -15 -15 -15 -15 -15 -15 -15 -15 -15 -15 -15 -15 -15 -15 -15 -15 -16 -16 -16 -16
-17 -17 -16 -16 -15 -15 -15 -16 -15 -15 -15 -15 -15 -15 -15 -15 -15 -15 -15 -15 -15 -15 -15 -15 -15 -15 -15 -15 -15 -15 -15 -15 -15 -15 -15 -15 -15 -15 -15 -15 -15 -15 -16 -16 -16 -16 -16 -17 -17
-17 -17 -16 -15 -15 -16 -15 -16 -15 -15 -16 -15 -15 -15 -15 -15 -15 -15 -15 -15 -15 -15 -15 -15 -15 -15 -15 -14 -14 -15 -15 -15 -15 -15 -15 -15 -15 -15 -15 -15 -15 -16 -16 -16 -17 -17 -17 -18 -18
-17 -17 -16 -15 -15 -16 -16 -16 -15 -15 -16 -16 -16 -15 -15 -15 -15 -15 -15 -15 -15 -15 -15 -15 -15 -15 -15 -15 -15 -15 -15 -15 -15 -15 -15 -15 -15 -15 -15 -16 -16 -16 -16 -17 -17 -18 -18 -19 -19
-17 -17 -16 -16 -16 -16 -16 -15 -15 -16 -15 -16 -16 -16 -15 -15 -15 -16 -15 -15 -15 -15 -15 -15 -15 -15 -15 -15 -15 -15 -15 -15 -15 -15 -15 -15 -15 -16 -16 -16 -16 -17 -17 -18 -18 -18 -19 -19 -19
-17 -16 -16 -15 -15 -15 -15 -16 -16 -16 -16 -16 -16 -16 -16 -15 -15 -15 -15 -15 -15 -15 -16 -15 -16 -15 -16 -15 -15 -15 -15 -15 -15 -15 -15 -15 -16 -16 -16 -16 -17 -17 -18 -18 -19 -19 -19 -19 -19
-16 -16 -16 -16 -16 -16 -17 -16 -16 -16 -16 -15 -15 -16 -16 -16 -16 -16 -15 -15 -15 -15 -15 -16 -16 -16 -16 -16 -15 -15 -15 -15 -15 -15 -16 -16 -16 -16 -16 -16 -17 -17 -18 -18 -19 -19 -19 -19 -19
-17 -16 -16 -16 -16 -16 -16 -16 -16 -15 -15 -15 -15 -16 -15 -16 -16 -16 -16 -16 -16 -16 -15 -15 -16 -16 -16 -16 -16 -15 -15 -16 -16 -16 -16 -16 -16 -16 -17 -17 -18 -18 -19 -19 -19 -19 -19 -19 -19
-16 -16 -16 -16 -15 -15 -15 -15 -15 -15 -15 -15 -15 -15 -15 -15 -15 -16 -16 -17 -17 -17 -17 -16 -16 -16 -16 -16 -16 -16 -16 -16 -16 -16 -16 -16 -17 -17 -17 -18 -18 -18 -19 -19 -19 -19 -19 -19 -19
-16 -16 -16 -16 -15 -15 -15 -15 -14 -15 -15 -15 -15 -15 -15 -15 -15 -15 -16 -17 -17 -17 -17 -16 -16 -16 -16 -16 -16 -16 -16 -16 -16 -16 -16 -17 -17 -17 -18 -18 -18 -18 -19 -19 -19 -18 -19 -19 -20
-16 -16 -15 -16 -15 -16 -16 -15 -15 -16 -16 -16 -15 -15 -15 -15 -15 -15 -16 -16 -16 -16 -16 -16 -15 -15 -16 -16 -16 -16 -16 -16 -16 -16 -17 -17 -17 -18 -18 -18 -19 -19 -19 -19 -19 -19 -19 -19 -19
-16 -16 -16 -16 -16 -16 -16 -15 -15 -16 -16 -16 -16 -15 -15 -15 -15 -15 -15 -15 -15 -16 -16 -15 -15 -16 -16 -16 -16 -16 -16 -16 -16 -16 -17 -17 -17 -18 -18 -18 -18 -19 -19 -19 -19 -19 -19 -19 -20
-16 -16 -16 -16 -16 -16 -16 -16 -16 -16 -16 -16 -16 -15 -15 -15 -15 -15 -15 -15 -15 -15 -15 -16 -16 -16 -16 -16 -16 -16 -16 -16 -16 -16 -17 -17 -17 -17 -18 -18 -19 -19 -19 -19 -20 -20 -20 -20 -20
-17 -16 -16 -16 -16 -16 -15 -15 -16 -16 -16 -16 -16 -16 -16 -16 -16 -15 -15 -15 -16 -16 -16 -16 -16 -16 -16 -16 -16 -16 -16 -16 -16 -16 -17 -17 -17 -18 -18 -19 -19 -19 -19 -20 -20 -20 -20 -21 -22
-17 -17 -16 -16 -16 -16 -16 -15 -16 -16 -16 -16 -16 -16 -16 -16 -16 -16 -16 -16 -16 -16 -16 -16 -16 -16 -16 -16 -16 -16 -16 -16 -17 -17 -17 -17 -18 -18 -18 -19 -19 -20 -20 -21 -21 -21 -21 -22 -22
Height
5768 5769 5771 5772 5778 5777 5780 5786 5790 5795 5801 5804 5806 5808 5809 5812 5815 5820 5819 5821 5824 5825 5826 5826 5826 5826 5826 5828 5829 5830 5830 5832 5831 5831 5831 5831 5831 5833 5832 5833 5834 5835 5837 5838 5838 5837 5837 5836 5835
5763 5764 5766 5768 5771 5774 5778 5782 5786 5791 5797 5802 5803 5803 5806 5809 5811 5812 5814 5815 5817 5818 5820 5820 5821 5820 5821 5822 5823 5824 5825 5824 5826 5826 5825 5826 5827 5828 5828 5829 5829 5833 5835 5836 5835 5835 5835 5833 5833
5760 5760 5763 5764 5766 5772 5777 5780 5781 5786 5791 5795 5799 5800 5803 5806 5806 5808 5809 5809 5810 5812 5814 5815 5815 5816 5817 5818 5818 5817 5817 5819 5821 5820 5821 5821 5823 5825 5826 5825 5827 5829 5831 5832 5833 5834 5832 5832 5832
5756 5757 5760 5762 5765 5770 5774 5776 5778 5782 5788 5791 5794 5798 5800 5801 5803 5803 5804 5805 5806 5807 5808 5809 5808 5807 5808 5810 5810 5809 5813 5816 5816 5816 5816 5817 5819 5820 5822 5823 5825 5827 5829 5829 5831 5830 5830 5830 5829
5753 5754 5756 5760 5764 5767 5771 5774 5776 5779 5783 5786 5789 5792 5795 5795 5797 5798 5800 5800 5801 5803 5803 5803 5803 5801 5801 5803 5801 5806 5808 5811 5811 5811 5812 5814 5816 5817 5819 5821 5822 5823 5824 5827 5827 5828 5826 5825 5825
5750 5752 5755 5758 5762 5764 5770 5772 5774 5776 5778 5782 5785 5789 5792 5791 5791 5791 5793 5795 5797 5798 5797 5798 5795 5796 5797 5795 5794 5799 5803 5805 5805 5806 5808 5811 5814 5814 5816 5820 5820 5820 5821 5822 5824 5823 5823 5822 5821
5749 5750 5753 5758 5762 5764 5766 5769 5771 5773 5776 5780 5784 5787 5787 5786 5788 5788 5789 5790 5793 5795 5794 5794 5791 5785 5787 5788 5789 5794 5797 5799 5801 5802 5805 5809 5810 5813 5816 5817 5818 5818 5818 5822 5822 5820 5819 5817 5816
5749 5751 5754 5758 5761 5763 5764 5766 5769 5772 5776 5779 5781 5783 5781 5783 5784 5785 5788 5790 5790 5791 5791 5788 5786 5782 5781 5783 5789 5793 5795 5798 5800 5801 5804 5806 5810 5813 5815 5817 5816 5818 5818 5819 5817 5817 5816 5813 5812
5750 5753 5756 5759 5761 5763 5764 5765 5768 5770 5774 5777 5777 5779 5777 5779 5780 5782 5785 5786 5786 5784 5783 5784 5779 5780 5781 5781 5784 5788 5792 5796 5797 5798 5801 5807 5811 5812 5812 5815 5816 5816 5817 5816 5814 5814 5813 5811 5810
5751 5754 5757 5760 5762 5765 5764 5765 5768 5770 5771 5773 5774 5773 5774 5775 5774 5776 5778 5781 5779 5779 5777 5778 5776 5779 5783 5785 5785 5788 5790 5791 5793 5796 5802 5806 5809 5810 5811 5812 5813 5814 5813 5812 5811 5812 5810 5809 5806
5752 5754 5757 5760 5763 5765 5764 5766 5767 5768 5769 5770 5770 5770 5771 5771 5769 5771 5772 5776 5775 5773 5772 5774 5778 5778 5779 5783 5783 5784 5788 5791 5794 5799 5802 5806 5808 5809 5809 5810 5810 5809 5809 5809 5808 5808 5806 5803 5802
5753 5755 5759 5761 5764 5763 5764 5765 5765 5766 5765 5766 5767 5768 5767 5767 5767 5767 5766 5770 5772 5770 5770 5773 5776 5776 5781 5784 5785 5786 5792 5793 5795 5800 5802 5802 5805 5805 5807 5808 5806 5807 5806 5805 5804 5802 5799 5797 5796
5755 5759 5759 5761 5764 5764 5765 5765 5765 5765 5764 5763 5766 5766 5766 5764 5765 5765 5763 5766 5768 5770 5771 5775 5776 5778 5779 5781 5786 5790 5793 5794 5797 5798 5802 5802 5802 5802 5803 5804 5803 5803 5801 5800 5798 5797 5794 5792 5790
5758 5760 5762 5764 5763 5764 5764 5765 5766 5767 5765 5764 5764 5764 5765 5765 5761 5763 5763 5765 5769 5771 5775 5778 5780 5782 5783 5786 5790 5794 5792 5793 5794 5795 5799 5801 5801 5800 5799 5800 5799 5799 5797 5795 5793 5791 5789 5784 5782
5759 5762 5763 5765 5766 5766 5766 5765 5766 5767 5766 5764 5765 5765 5765 5764 5764 5764 5767 5769 5772 5774 5777 5780 5782 5783 5785 5786 5788 5790 5790 5791 5793 5794 5795 5796 5798 5797 5798 5798 5796 5794 5791 5789 5787 5784 5781 5777 5774
5760 5762 5764 5766 5766 5766 5766 5766 5767 5767 5767 5764 5764 5767 5768 5769 5769 5768 5771 5772 5775 5777 5778 5779 5782 5783 5785 5787 5788 5789 5790 5791 5791 5792 5793 5794 5795 5794 5794 5792 5791 5788 5786 5784 5781 5778 5774 5770 5766
5759 5760 5763 5765 5766 5766 5767 5767 5767 5767 5766 5766 5765 5767 5769 5770 5770 5771 5773 5773 5775 5777 5778 5781 5783 5784 5785 5785 5786 5786 5787 5788 5790 5790 5792 5792 5791 5790 5789 5788 5786 5783 5781 5778 5774 5770 5765 5761 5757
5757 5761 5762 5763 5764 5765 5765 5766 5767 5767 5768 5767 5767 5769 5769 5770 5771 5773 5775 5777 5778 5777 5778 5780 5781 5782 5783 5783 5784 5785 5785 5786 5787 5787 5787 5787 5787 5785 5784 5782 5780 5778 5775 5770 5766 5761 5757 5751 5745
5756 5758 5761 5761 5763 5764 5766 5767 5768 5767 5769 5769 5769 5770 5771 5771 5772 5774 5776 5777 5778 5779 5779 5780 5780 5781 5781 5782 5782 5783 5783 5782 5783 5784 5783 5783 5782 5781 5779 5778 5775 5771 5767 5762 5757 5751 5745 5739 5734
5756 5758 5760 5760 5760 5762 5764 5767 5767 5767 5768 5769 5769 5770 5771 5772 5773 5775 5776 5777 5778 5779 5779 5780 5780 5780 5779 5778 5780 5779 5781 5781 5781 5781 5780 5778 5778 5777 5774 5771 5768 5764 5759 5752 5746 5740 5735 5730 5725
5756 5758 5759 5760 5760 5762 5763 5765 5766 5768 5769 5770 5770 5771 5771 5772 5774 5775 5776 5777 5777 5778 5778 5778 5777 5776 5776 5776 5777 5778 5779 5778 5777 5777 5775 5773 5772 5770 5766 5763 5760 5755 5749 5743 5737 5731 5726 5721 5715
5755 5756 5757 5758 5760 5760 5762 5764 5764 5766 5768 5769 5770 5770 5771 5771 5772 5773 5775 5775 5775 5775 5776 5776 5775 5774 5773 5773 5773 5774 5776 5774 5772 5772 5769 5766 5763 5760 5758 5755 5751 5745 5739 5733 5728 5721 5715 5709 5704
5754 5755 5756 5758 5759 5760 5761 5762 5763 5764 5766 5766 5767 5768 5769 5769 5769 5770 5771 5771 5772 5772 5773 5773 5772 5770 5770 5770 5770 5771 5770 5767 5766 5764 5761 5757 5754 5751 5748 5745 5740 5734 5729 5723 5717 5711 5705 5698 5692
5752 5754 5756 5757 5758 5759 5760 5761 5762 5763 5764 5764 5764 5765 5765 5766 5766 5766 5766 5766 5768 5768 5768 5768 5767 5767 5766 5766 5765 5764 5763 5762 5759 5757 5754 5749 5745 5742 5739 5735 5731 5725 5719 5713 5707 5700 5694 5687 5679
5751 5753 5754 5756 5755 5756 5757 5757 5759 5761 5762 5761 5761 5762 5764 5764 5763 5763 5762 5762 5763 5763 5763 5763 5763 5761 5761 5761 5759 5758 5757 5755 5753 5750 5747 5743 5739 5734 5730 5726 5721 5716 5709 5702 5694 5688 5681 5674 5666
5748 5750 5751 5751 5752 5753 5753 5753 5756 5757 5756 5758 5759 5758 5758 5759 5759 5760 5760 5759 5759 5759 5759 5760 5759 5759 5758 5756 5753 5753 5751 5749 5746 5742 5739 5735 5730 5726 5721 5716 5710 5706 5697 5689 5681 5674 5667 5660 5652
5745 5747 5749 5750 5750 5750 5751 5752 5752 5753 5753 5752 5753 5754 5753 5754 5754 5753 5754 5755 5755 5755 5756 5756 5756 5754 5752 5750 5748 5745 5743 5740 5736 5733 5730 5724 5720 5715 5710 5705 5697 5691 5685 5676 5668 5661 5654 5648 5640
5742 5745 5746 5747 5746 5746 5746 5747 5748 5749 5750 5749 5749 5750 5751 5750 5750 5750 5751 5752 5751 5752 5752 5751 5750 5748 5746 5743 5741 5738 5736 5733 5729 5725 5721 5717 5711 5706 5699 5692 5685 5679 5671 5664 5656 5649 5642 5635 5625
5738 5740 5742 5742 5741 5740 5741 5743 5744 5744 5744 5745 5745 5746 5747 5747 5747 5747 5747 5748 5748 5748 5747 5745 5743 5741 5739 5737 5735 5732 5729 5725 5720 5717 5713 5707 5701 5694 5688 5680 5673 5666 5658 5651 5644 5637 5629 5620 5611
5734 5734 5736 5736 5738 5736 5734 5738 5739 5740 5739 5740 5740 5741 5742 5742 5743 5743 5743 5743 5742 5741 5740 5738 5738 5736 5734 5731 5727 5723 5720 5716 5712 5708 5702 5695 5689 5682 5675 5669 5663 5655 5648 5638 5631 5623 5614 5605 5595
Wind_Speed
19 21 23 26 31 32 31 27 25 29 32 22 27 31 24 22 24 23 23 25 24 22 27 27 28 30 29 30 26 25 22 25 26 33 28 27 27 23 20 20 16 13 14 14 15 16 16 17 18
18 20 23 24 30 31 23 20 25 24 32 26 25 28 27 26 27 28 29 26 25 27 28 29 32 33 29 29 28 27 26 27 27 31 29 29 28 23 21 21 16 15 17 17 17 18 16 17 20
17 18 23 24 27 26 17 19 24 28 27 31 30 26 28 28 29 27 27 28 27 28 29 31 34 34 35 32 31 30 29 24 31 29 33 30 25 25 25 19 18 17 19 20 20 18 18 20 22
16 17 21 23 23 22 19 22 26 26 29 29 29 28 28 29 31 29 24 26 27 26 28 32 33 34 31 28 29 31 30 26 31 32 34 29 27 26 25 19 20 17 19 20 20 18 19 20 23
15 15 17 21 19 21 20 22 23 27 29 28 29 28 24 26 28 32 27 27 24 26 27 26 32 32 30 27 31 28 24 30 33 36 34 26 28 28 26 14 13 15 17 18 19 19 19 23 27
12 13 13 14 18 19 18 21 23 25 28 31 27 23 24 23 28 33 36 33 29 24 27 33 28 38 28 33 27 22 28 32 34 38 33 33 29 25 13 6 11 14 14 15 17 18 22 26 30
10 10 9 9 15 16 21 24 24 28 26 22 24 26 19 24 27 28 25 30 28 29 30 31 42 44 49 36 31 32 33 31 38 36 34 26 14 7 8 11 12 12 12 14 20 22 27 28 28
5 6 8 13 19 20 22 25 27 25 23 19 21 25 24 23 21 30 26 26 27 29 30 38 32 36 41 38 33 39 38 32 41 37 28 11 11 8 9 8 8 8 12 18 21 24 23 21 22
7 13 14 16 13 15 18 14 21 24 22 17 24 25 32 32 23 17 19 17 21 23 26 33 27 38 41 43 48 43 30 28 31 26 15 11 6 6 5 5 7 11 16 20 19 19 16 15 19
13 11 9 8 8 1 5 7 8 16 22 21 20 24 23 23 19 14 20 19 16 16 23 24 23 26 27 27 20 24 25 30 29 19 15 14 15 9 6 8 13 18 15 14 10 13 17 20 23
14 13 8 6 7 9 1 2 10 13 21 18 14 15 14 17 17 15 19 13 8 17 17 15 12 8 5 27 25 26 21 19 23 18 13 7 5 8 9 10 12 11 7 9 12 17 20 23 26
16 14 9 6 5 14 2 5 9 12 17 12 8 10 11 12 9 16 17 12 15 15 8 14 10 15 14 13 12 19 16 16 13 6 10 9 8 8 9 10 3 6 10 14 18 22 25 29 31
12 10 6 6 6 10 5 5 6 6 4 2 4 6 6 7 7 10 24 15 8 10 10 21 18 18 19 17 15 13 12 12 12 10 7 5 6 6 6 4 5 10 15 20 23 27 30 33 36
16 9 7 3 5 3 4 3 4 2 5 2 4 2 0 2 7 6 13 19 15 19 17 15 13 13 13 11 9 10 10 11 9 9 7 7 5 3 3 7 12 16 19 23 28 32 35 37 39
14 4 6 5 3 5 3 3 4 3 5 4 11 11 12 14 14 15 17 19 19 17 14 13 11 10 9 7 7 7 8 10 9 5 7 5 4 4 8 13 17 21 24 29 32 36 39 41 42
10 12 9 3 7 5 2 7 7 3 3 6 11 10 11 12 13 17 15 18 18 18 15 12 10 8 8 8 7 8 7 11 10 6 7 8 7 9 13 18 22 26 29 33 36 39 42 44 46
12 14 10 11 4 2 4 6 8 6 2 4 9 9 8 9 11 13 12 13 14 14 13 11 9 8 7 6 5 6 7 9 8 8 8 8 10 13 18 22 26 29 33 37 40 43 45 48 47
12 18 10 13 15 7 7 5 6 7 7 5 5 7 8 8 9 10 9 9 8 6 5 4 4 2 1 2 5 7 7 7 7 6 8 11 15 19 23 27 31 34 39 42 43 45 47 47 48
14 17 19 15 14 17 15 11 6 8 11 4 1 5 8 9 8 7 8 8 8 8 8 6 5 4 4 4 5 7 7 7 7 10 12 16 19 23 27 31 34 38 42 44 45 47 48 46 47
15 14 15 15 11 17 15 11 9 8 8 4 4 10 6 7 11 10 9 8 8 7 8 8 10 8 7 8 9 8 9 10 12 15 18 20 24 28 31 34 37 41 43 44 45 46 45 46 47
11 17 18 17 12 12 7 4 5 6 10 7 5 2 5 6 8 9 10 9 7 5 5 8 10 11 11 12 13 12 13 15 17 21 23 25 29 33 36 37 41 42 42 42 43 44 42 46 53
19 22 20 16 12 8 7 7 6 8 10 10 11 9 9 10 9 8 7 9 10 7 8 10 11 13 13 15 17 16 17 18 22 25 28 33 36 38 41 44 46 45 43 40 46 48 48 52 56
17 17 19 17 15 14 12 10 6 9 9 12 11 9 16 16 13 10 9 10 10 13 12 13 14 14 14 13 14 17 19 20 26 30 34 38 40 42 44 46 48 48 45 46 46 45 53 59 61
24 20 17 16 14 17 12 7 6 6 8 6 12 15 14 18 18 19 19 17 16 17 17 15 14 12 11 13 14 16 21 25 29 33 37 41 43 43 45 46 49 48 49 46 55 55 58 60 60
23 20 19 19 21 20 16 17 11 10 11 10 11 12 13 16 16 22 23 22 20 17 15 14 15 13 14 22 16 19 24 29 33 37 37 40 41 44 50 50 50 52 55 58 58 58 58 60 63
22 21 22 23 22 22 22 23 16 14 17 16 12 14 13 11 11 15 19 22 19 19 16 14 14 17 18 23 21 25 28 33 36 37 38 39 45 47 51 49 54 53 58 61 60 60 62 63 66
24 25 21 19 20 21 23 23 21 15 14 15 17 15 15 15 16 12 12 15 15 15 13 15 17 18 21 24 26 29 34 35 37 37 39 48 52 55 50 56 57 57 63 61 63 64 64 67 70
28 25 21 20 24 24 24 23 17 16 17 12 15 21 20 18 14 12 11 11 10 11 14 17 21 23 27 30 31 32 36 37 38 39 43 48 53 57 58 62 61 63 63 64 65 64 67 70 73
28 28 24 22 24 26 25 21 20 19 21 19 18 19 19 18 18 16 16 14 15 16 17 22 26 27 29 31 32 34 36 37 38 42 44 52 56 59 64 63 64 66 65 65 64 66 70 74 76
26 28 24 25 26 26 28 18 14 15 18 20 19 20 22 22 21 20 19 19 21 21 24 28 31 31 31 32 35 36 36 39 40 43 49 55 61 65 66 66 66 64 62 62 64 67 71 77 77
Wind_Direction
274 260 253 238 236 231 231 229 229 225 222 224 228 237 231 230 240 245 243 238 239 241 253 265 274 278 279 291 288 277 281 274 272 289 285 290 290 297 300 292 289 263 256 258 268 277 289 307 315
275 264 250 240 230 234 230 223 208 220 220 216 219 220 225 231 240 248 245 245 247 252 256 261 268 276 283 292 295 281 273 274 267 284 281 284 287 294 293 284 283 263 255 258 267 273 290 303 304
283 266 251 243 232 227 224 208 209 210 212 217 219 225 230 232 236 239 243 247 254 256 261 269 272 277 284 282 275 268 264 267 269 272 271 278 281 289 287 273 275 251 246 256 264 281 292 298 306
287 270 251 243 233 221 213 213 215 207 213 217 221 230 237 236 239 241 244 251 263 266 268 270 282 280 274 268 268 265 263 260 268 262 271 274 271 275 273 261 261 247 246 256 266 278 285 298 293
290 270 254 243 230 228 218 218 216 212 211 214 219 226 233 239 237 241 243 256 266 263 263 275 281 279 272 265 261 264 238 263 256 261 265 267 262 269 256 243 240 245 249 258 272 278 284 282 296
287 263 251 238 226 222 215 214 219 213 215 216 221 224 237 239 241 247 251 254 260 268 278 286 257 274 253 257 257 253 254 265 263 269 268 264 261 254 224 223 233 245 255 269 280 286 284 289 302
277 245 230 217 203 198 209 213 219 214 221 227 227 227 224 230 240 250 260 259 266 272 283 276 251 228 216 255 251 246 257 265 254 270 256 256 241 161 195 219 235 249 270 278 284 281 293 305 306
269 196 170 183 195 209 213 218 227 229 225 228 234 236 250 241 249 253 265 270 267 274 273 272 248 206 222 250 245 242 259 263 261 257 245 222 182 169 207 234 247 270 292 274 288 296 297 304 306
158 157 179 183 200 223 232 249 239 234 223 241 244 249 243 251 260 253 256 272 268 270 261 259 261 237 239 245 246 248 259 268 252 228 173 150 156 194 200 252 275 285 289 290 293 300 311 316 316
148 167 158 182 205 205 7 253 247 253 226 244 248 257 248 244 267 240 273 288 272 258 254 264 242 221 221 241 236 238 237 227 222 190 147 169 174 186 212 243 255 269 283 296 308 314 320 319 319
160 157 148 194 205 210 124 204 225 244 229 231 230 231 258 262 264 247 271 276 257 252 248 254 227 236 308 229 242 235 217 169 120 119 124 149 196 238 243 260 271 276 281 305 316 316 319 320 317
173 163 144 173 184 214 105 55 30 289 262 193 238 251 254 265 265 289 271 252 217 227 184 72 71 86 112 128 162 137 111 103 93 151 185 191 226 246 252 270 252 286 309 316 317 317 317 316 313
200 163 154 178 176 226 276 310 322 329 29 217 231 256 264 262 237 278 241 229 155 167 97 90 89 92 97 97 103 117 141 152 178 186 196 215 240 225 201 231 285 300 311 316 316 314 314 312 310
205 214 191 108 156 193 203 119 93 71 54 10 81 36 316 29 141 88 106 103 114 105 113 117 116 129 133 140 153 181 162 173 173 176 222 257 226 207 300 302 302 305 310 314 314 314 311 310 309
204 196 205 154 203 236 203 135 172 144 95 82 83 77 58 64 82 81 90 104 111 119 128 135 141 143 143 152 182 194 189 179 186 219 231 221 220 269 283 294 303 310 312 313 312 311 309 309 308
193 176 184 116 218 304 12 133 159 116 123 110 99 113 104 112 117 118 125 129 132 140 143 146 150 161 180 201 207 203 203 208 227 259 219 205 245 276 294 300 304 309 310 309 308 307 306 307 308
203 199 207 217 232 264 292 171 142 112 168 134 111 109 117 120 126 130 139 142 146 141 143 151 161 172 185 190 205 212 203 212 225 199 204 243 271 290 294 299 304 307 308 306 307 309 309 308 308
214 213 224 232 234 237 216 151 157 114 117 102 101 114 114 117 124 136 146 160 159 132 120 117 131 156 245 251 220 206 197 193 195 223 244 266 282 292 302 306 308 308 307 307 309 309 308 310 313
212 219 238 268 263 232 251 190 151 100 123 100 26 143 140 130 131 141 143 137 135 142 151 178 186 228 248 251 198 186 193 206 232 254 268 283 295 302 305 306 308 308 308 309 310 311 314 315 312
217 223 237 259 216 190 187 180 152 122 132 111 357 191 160 157 160 153 153 152 156 163 171 191 203 215 226 210 209 210 230 242 252 270 284 294 299 301 304 304 307 310 312 314 313 312 311 312 311
216 200 204 214 181 191 216 211 171 168 150 147 141 116 186 175 177 169 177 183 193 202 215 220 220 222 231 227 220 225 238 258 275 281 287 298 299 301 300 303 312 315 314 311 311 308 305 306 310
205 196 206 213 199 208 243 252 176 179 193 189 178 172 199 198 185 197 215 230 239 246 248 242 234 236 233 232 232 242 254 270 284 296 297 301 301 301 303 303 307 314 314 310 317 312 305 304 308
200 206 213 219 226 230 234 249 232 189 193 199 216 219 209 212 203 210 228 241 260 277 275 257 245 245 236 229 239 255 272 292 299 302 303 304 302 300 306 305 309 313 311 314 307 308 300 300 306
219 213 225 230 242 259 261 255 212 224 224 225 235 219 214 216 216 219 221 232 251 253 262 261 246 252 261 264 266 282 296 301 304 304 303 301 300 301 305 305 307 307 308 304 302 302 300 305 308
208 223 225 234 241 250 258 266 242 255 261 262 246 239 227 233 232 224 231 238 245 251 253 262 259 274 278 273 281 292 297 300 300 299 300 297 296 297 303 306 306 311 304 308 305 305 308 308 309
202 222 226 231 235 246 252 260 276 281 276 254 266 247 247 253 237 229 239 239 242 242 241 254 272 282 282 282 288 296 299 302 302 300 300 297 295 297 300 303 303 299 304 307 307 309 309 308 307
207 228 244 257 257 259 263 273 282 278 233 264 243 248 265 279 275 254 241 246 234 231 242 264 276 286 289 294 297 302 305 304 305 300 298 297 296 299 297 302 302 302 306 307 308 309 308 307 308
224 233 241 259 273 274 276 282 280 261 265 280 247 246 256 268 259 244 239 243 253 260 267 278 281 287 294 298 302 303 302 301 300 297 293 289 291 298 298 301 302 304 307 308 307 307 308 308 308
226 236 234 255 262 272 278 283 281 270 254 261 254 259 253 241 254 249 251 258 264 266 274 278 283 290 296 301 301 302 299 302 301 292 288 292 294 300 301 301 301 305 307 306 306 308 309 309 309
232 234 239 249 275 282 274 287 282 265 261 255 255 248 238 239 258 256 256 264 269 271 269 277 289 294 295 299 299 300 300 304 300 289 290 292 296 301 300 299 301 304 304 303 304 307 309 307 306